Time,TemperatureF,DewpointF,PressureIn,WindDirection,WindDirectionDegrees,WindSpeedMPH,WindSpeedGustMPH,Humidity,HourlyPrecipIn,Conditions,Clouds,dailyrainin,SoftwareType,DateUTC
2013-07-12 00:10:00,72.5,66.0,29.85,WNW,292,2.0,4.0,79,0.00,,,0.00,weatherlink.com 1.10,2013-07-12 04:10:00,
2013-07-12 00:25:00,72.5,65.0,29.86,WNW,283,0.0,4.0,77,0.00,,,0.00,weatherlink.com 1.10,2013-07-12 04:25:00,
2013-07-12 00:40:00,72.4,65.0,29.86,WNW,286,2.0,3.0,77,0.00,,,0.00,weatherlink.com 1.10,2013-07-12 04:40:00,
2013-07-12 00:55:00,72.1,65.0,29.86,SW,224,3.0,5.0,77,0.00,,,0.00,weatherlink.com 1.10,2013-07-12 04:55:00,
2013-07-12 01:10:00,72.0,64.0,29.86,West,277,2.0,5.0,77,0.00,,,0.00,weatherlink.com 1.10,2013-07-12 05:10:00,
2013-07-12 01:25:00,71.8,64.0,29.88,WNW,286,1.0,5.0,77,0.00,,,0.00,weatherlink.com 1.10,2013-07-12 05:25:00,
2013-07-12 01:40:00,71.2,64.0,29.89,WNW,288,1.0,6.0,79,0.02,,,0.02,weatherlink.com 1.10,2013-07-12 05:40:00,
2013-07-12 01:55:00,69.7,65.0,29.90,WNW,302,0.0,2.0,86,0.06,,,0.06,weatherlink.com 1.10,2013-07-12 05:55:00,
2013-07-12 02:10:00,68.6,65.0,29.91,WNW,302,0.0,2.0,89,0.11,,,0.11,weatherlink.com 1.10,2013-07-12 06:10:00,
2013-07-12 02:25:00,67.8,65.0,29.90,WNW,302,1.0,3.0,91,0.17,,,0.17,weatherlink.com 1.10,2013-07-12 06:25:00,
2013-07-12 02:41:00,67.1,65.0,29.89,NW,304,1.0,2.0,92,0.20,,,0.22,weatherlink.com 1.10,2013-07-12 06:41:00,
2013-07-12 02:56:00,66.4,64.0,29.88,WNW,288,1.0,3.0,93,0.21,,,0.28,weatherlink.com 1.10,2013-07-12 06:56:00,
2013-07-12 03:11:00,66.0,64.0,29.89,WNW,290,0.0,3.0,94,0.20,,,0.32,weatherlink.com 1.10,2013-07-12 07:11:00,
2013-07-12 03:26:00,66.0,65.0,29.91,East,82,2.0,4.0,95,0.20,,,0.37,weatherlink.com 1.10,2013-07-12 07:26:00,
2013-07-12 03:41:00,65.9,65.0,29.90,East,82,0.0,0.0,95,0.19,,,0.42,weatherlink.com 1.10,2013-07-12 07:41:00,
2013-07-12 03:56:00,65.8,65.0,29.89,NW,321,1.0,1.0,96,0.17,,,0.45,weatherlink.com 1.10,2013-07-12 07:56:00,
2013-07-12 04:11:00,65.8,65.0,29.89,NW,321,0.0,2.0,96,0.14,,,0.46,weatherlink.com 1.10,2013-07-12 08:11:00,
2013-07-12 04:26:00,65.6,65.0,29.89,WNW,290,0.0,1.0,96,0.10,,,0.47,weatherlink.com 1.10,2013-07-12 08:26:00,
2013-07-12 04:41:00,65.4,64.0,29.89,WNW,286,0.0,1.0,96,0.06,,,0.48,weatherlink.com 1.10,2013-07-12 08:41:00,
2013-07-12 04:56:00,65.4,64.0,29.89,WNW,286,1.0,1.0,96,0.05,,,0.50,weatherlink.com 1.10,2013-07-12 08:56:00,
2013-07-12 05:11:00,65.5,64.0,29.88,WNW,286,0.0,0.0,96,0.05,,,0.51,weatherlink.com 1.10,2013-07-12 09:11:00,
2013-07-12 05:26:00,65.4,64.0,29.88,WNW,286,1.0,3.0,96,0.04,,,0.51,weatherlink.com 1.10,2013-07-12 09:26:00,
2013-07-12 05:41:00,65.3,64.0,29.87,NNW,330,0.0,2.0,96,0.04,,,0.52,weatherlink.com 1.10,2013-07-12 09:41:00,
2013-07-12 05:57:00,65.3,64.0,29.87,East,98,1.0,3.0,96,0.02,,,0.52,weatherlink.com 1.10,2013-07-12 09:57:00,
2013-07-12 06:11:00,65.4,64.0,29.87,ESE,109,3.0,3.0,96,0.01,,,0.52,weatherlink.com 1.10,2013-07-12 10:11:00,
2013-07-12 06:26:00,65.6,65.0,29.87,East,101,2.0,6.0,96,0.02,,,0.53,weatherlink.com 1.10,2013-07-12 10:26:00,
2013-07-12 06:41:00,65.7,65.0,29.88,WNW,300,0.0,7.0,96,0.01,,,0.53,weatherlink.com 1.10,2013-07-12 10:41:00,
2013-07-12 06:56:00,65.6,65.0,29.88,WNW,300,0.0,1.0,96,0.01,,,0.53,weatherlink.com 1.10,2013-07-12 10:56:00,
2013-07-12 07:11:00,65.7,65.0,29.89,WNW,300,1.0,3.0,96,0.01,,,0.53,weatherlink.com 1.10,2013-07-12 11:11:00,
2013-07-12 07:26:00,65.6,65.0,29.90,WNW,294,1.0,4.0,96,0.00,,,0.53,weatherlink.com 1.10,2013-07-12 11:26:00,
2013-07-12 07:41:00,65.8,65.0,29.91,WNW,296,1.0,4.0,96,0.00,,,0.53,weatherlink.com 1.10,2013-07-12 11:41:00,
2013-07-12 07:56:00,65.9,65.0,29.91,WNW,289,3.0,5.0,96,0.00,,,0.53,weatherlink.com 1.10,2013-07-12 11:56:00,
2013-07-12 08:11:00,65.9,65.0,29.92,WNW,293,0.0,2.0,96,0.00,,,0.53,weatherlink.com 1.10,2013-07-12 12:11:00,
2013-07-12 08:26:00,66.1,65.0,29.92,WNW,293,0.0,2.0,96,0.00,,,0.53,weatherlink.com 1.10,2013-07-12 12:26:00,
2013-07-12 08:41:00,66.5,65.0,29.92,WNW,290,1.0,3.0,95,0.00,,,0.53,weatherlink.com 1.10,2013-07-12 12:41:00,
2013-07-12 08:56:00,67.1,66.0,29.92,West,271,0.0,4.0,95,0.00,,,0.53,weatherlink.com 1.10,2013-07-12 12:56:00,
2013-07-12 09:11:00,67.6,66.0,29.92,WNW,303,2.0,5.0,94,0.00,,,0.53,weatherlink.com 1.10,2013-07-12 13:11:00,
2013-07-12 09:26:00,68.2,66.0,29.92,WNW,294,3.0,4.0,92,0.00,,,0.53,weatherlink.com 1.10,2013-07-12 13:26:00,
2013-07-12 09:41:00,68.6,67.0,29.92,SE,145,0.0,2.0,93,0.00,,,0.53,weatherlink.com 1.10,2013-07-12 13:41:00,
2013-07-12 09:56:00,69.2,67.0,29.93,WNW,291,1.0,6.0,91,0.00,,,0.53,weatherlink.com 1.10,2013-07-12 13:56:00,
2013-07-12 10:11:00,69.7,66.0,29.92,WSW,246,0.0,9.0,89,0.00,,,0.53,weatherlink.com 1.10,2013-07-12 14:11:00,
2013-07-12 10:26:00,70.3,67.0,29.93,WNW,286,0.0,4.0,88,0.00,,,0.53,weatherlink.com 1.10,2013-07-12 14:26:00,
2013-07-12 10:41:00,70.5,66.0,29.94,WNW,299,3.0,5.0,86,0.00,,,0.53,weatherlink.com 1.10,2013-07-12 14:41:00,
2013-07-12 10:56:00,70.6,67.0,29.95,NW,310,0.0,6.0,88,0.00,,,0.53,weatherlink.com 1.10,2013-07-12 14:56:00,
2013-07-12 11:11:00,70.5,67.0,29.94,WNW,290,0.0,4.0,87,0.00,,,0.53,weatherlink.com 1.10,2013-07-12 15:11:00,
2013-07-12 11:26:00,70.4,66.0,29.94,WNW,295,4.0,5.0,86,0.00,,,0.53,weatherlink.com 1.10,2013-07-12 15:26:00,
2013-07-12 11:41:00,70.7,67.0,29.94,WNW,294,0.0,2.0,88,0.00,,,0.53,weatherlink.com 1.10,2013-07-12 15:41:00,
2013-07-12 11:56:00,71.2,67.0,29.95,WNW,300,1.0,3.0,86,0.00,,,0.53,weatherlink.com 1.10,2013-07-12 15:56:00,
2013-07-12 12:11:00,71.7,67.0,29.95,West,280,0.0,4.0,86,0.00,,,0.53,weatherlink.com 1.10,2013-07-12 16:11:00,
2013-07-12 12:26:00,71.7,67.0,29.95,WSW,257,0.0,2.0,86,0.00,,,0.53,weatherlink.com 1.10,2013-07-12 16:26:00,
2013-07-12 12:41:00,71.9,67.0,29.95,West,269,0.0,4.0,85,0.00,,,0.53,weatherlink.com 1.10,2013-07-12 16:41:00,
2013-07-12 13:11:00,72.6,67.0,29.94,West,281,0.0,7.0,82,0.00,,,0.53,weatherlink.com 1.10,2013-07-12 17:11:00,
2013-07-12 13:26:00,72.9,66.0,29.95,WSW,258,1.0,6.0,80,0.00,,,0.53,weatherlink.com 1.10,2013-07-12 17:26:00,
2013-07-12 13:41:00,73.0,67.0,29.94,West,275,4.0,6.0,82,0.00,,,0.53,weatherlink.com 1.10,2013-07-12 17:41:00,
2013-07-12 14:11:00,73.2,67.0,29.94,WSW,252,0.0,2.0,80,0.00,,,0.53,weatherlink.com 1.10,2013-07-12 18:11:00,
2013-07-12 14:26:00,72.9,67.0,29.95,West,263,0.0,3.0,82,0.00,,,0.53,weatherlink.com 1.10,2013-07-12 18:26:00,
2013-07-12 14:41:00,72.8,67.0,29.95,West,277,1.0,3.0,82,0.00,,,0.53,weatherlink.com 1.10,2013-07-12 18:41:00,
2013-07-12 14:56:00,73.6,68.0,29.95,WNW,282,1.0,6.0,82,0.00,,,0.53,weatherlink.com 1.10,2013-07-12 18:56:00,
2013-07-12 15:11:00,75.2,69.0,29.94,WNW,288,1.0,6.0,81,0.00,,,0.53,weatherlink.com 1.10,2013-07-12 19:11:00,
2013-07-12 15:57:00,76.2,68.0,29.94,North,355,4.0,4.0,75,0.00,,,0.53,weatherlink.com 1.10,2013-07-12 19:57:00,
2013-07-12 16:27:00,77.1,69.0,29.94,SSE,161,0.0,3.0,75,0.00,,,0.53,weatherlink.com 1.10,2013-07-12 20:27:00,
2013-07-12 16:42:00,76.7,68.0,29.93,SW,234,1.0,3.0,74,0.00,,,0.53,weatherlink.com 1.10,2013-07-12 20:42:00,
2013-07-12 17:12:00,75.7,68.0,29.93,SW,231,2.0,2.0,76,0.00,,,0.53,weatherlink.com 1.10,2013-07-12 21:12:00,
2013-07-12 17:27:00,75.3,68.0,29.94,ESE,104,0.0,1.0,78,0.00,,,0.53,weatherlink.com 1.10,2013-07-12 21:27:00,
2013-07-12 17:42:00,75.9,68.0,29.94,North,5,0.0,3.0,76,0.00,,,0.53,weatherlink.com 1.10,2013-07-12 21:42:00,
2013-07-12 18:12:00,75.4,67.0,29.94,ESE,109,1.0,7.0,76,0.00,,,0.53,weatherlink.com 1.10,2013-07-12 22:12:00,
2013-07-12 18:27:00,74.5,66.0,29.94,East,85,3.0,5.0,75,0.00,,,0.53,weatherlink.com 1.10,2013-07-12 22:27:00,
2013-07-12 18:42:00,74.0,66.0,29.95,East,100,0.0,3.0,77,0.00,,,0.53,weatherlink.com 1.10,2013-07-12 22:42:00,
2013-07-12 18:57:00,74.1,66.0,29.95,ESE,103,0.0,3.0,77,0.00,,,0.53,weatherlink.com 1.10,2013-07-12 22:57:00,
2013-07-12 19:12:00,74.7,67.0,29.95,NNE,26,0.0,1.0,77,0.00,,,0.53,weatherlink.com 1.10,2013-07-12 23:12:00,
2013-07-12 19:27:00,74.8,67.0,29.95,ENE,66,0.0,1.0,77,0.00,,,0.53,weatherlink.com 1.10,2013-07-12 23:27:00,
2013-07-12 19:42:00,74.7,67.0,29.95,North,360,0.0,1.0,77,0.00,,,0.53,weatherlink.com 1.10,2013-07-12 23:42:00,
2013-07-12 19:57:00,74.3,67.0,29.95,SE,125,0.0,3.0,79,0.00,,,0.53,weatherlink.com 1.10,2013-07-12 23:57:00,
2013-07-12 20:27:00,73.4,67.0,29.96,SE,125,0.0,0.0,81,0.00,,,0.53,weatherlink.com 1.10,2013-07-13 00:27:00,
2013-07-12 20:42:00,72.9,67.0,29.96,SE,125,0.0,1.0,82,0.00,,,0.53,weatherlink.com 1.10,2013-07-13 00:42:00,
2013-07-12 20:57:00,72.3,67.0,29.95,SE,126,0.0,0.0,84,0.00,,,0.53,weatherlink.com 1.10,2013-07-13 00:57:00,
2013-07-12 21:12:00,71.7,67.0,29.96,SE,126,0.0,0.0,84,0.00,,,0.53,weatherlink.com 1.10,2013-07-13 01:12:00,
2013-07-12 21:27:00,71.1,67.0,29.97,SE,126,0.0,0.0,86,0.00,,,0.53,weatherlink.com 1.10,2013-07-13 01:27:00,
2013-07-12 21:57:00,70.4,66.0,29.98,SE,126,0.0,0.0,87,0.00,,,0.53,weatherlink.com 1.10,2013-07-13 01:57:00,
2013-07-12 22:12:00,70.4,66.0,29.98,NE,44,0.0,5.0,87,0.00,,,0.53,weatherlink.com 1.10,2013-07-13 02:12:00,
2013-07-12 22:27:00,70.6,67.0,29.98,ENE,71,0.0,1.0,87,0.00,,,0.53,weatherlink.com 1.10,2013-07-13 02:27:00,
2013-07-12 22:42:00,70.5,66.0,29.98,North,360,1.0,4.0,86,0.00,,,0.53,weatherlink.com 1.10,2013-07-13 02:42:00,
2013-07-12 22:57:00,70.5,66.0,29.99,West,277,1.0,4.0,85,0.00,,,0.53,weatherlink.com 1.10,2013-07-13 02:57:00,
2013-07-12 23:27:00,70.5,66.0,29.99,East,88,0.0,1.0,86,0.00,,,0.53,weatherlink.com 1.10,2013-07-13 03:27:00,
2013-07-12 23:42:00,70.1,66.0,29.99,East,88,0.0,1.0,87,0.00,,,0.53,weatherlink.com 1.10,2013-07-13 03:42:00,
2013-07-12 23:57:00,69.8,66.0,29.99,WNW,283,1.0,3.0,87,0.00,,,0.53,weatherlink.com 1.10,2013-07-13 03:57:00,